Kalamazoo Battle Creek International Airport
KAZO : now visible

Airfield :











YOU CAN JOIN US ON...

 
LOGIN :

Register | Disclaimer

   EN    FR    IT 

 









Legend :    VFR   Marginal VFR   IFR   Intensive IFR   Very Intensive IFR
Visi :
Ceiling :
>= 8 km
>= 3000ft
5 to 8 km
1000 to 3000 ft
1500m to 5 km
500 to 1000 ft
800 to 1500m
200 to 500 ft
< 800m
< 200 ft
Symbols :   Thunderstorms  Fog  Heavy snow  Heavy precipitations  Wind > 20 kt






- Airport Elevation : 874 ft
- IATA code : AZO


KAZO - Kalamazoo Battle Creek International

CURRENT METAR :
  • 220153Z 17004KT 10SM CLR M08/M15 A3045 RMK AO2 SLP331 T10831150

EXPIRED METARs :
  • 220053Z 16004KT 10SM CLR M08/M15 A3047 RMK AO2 SLP336 T10781150
  • 212353Z 17004KT 10SM CLR M07/M15 A3048 RMK AO2 SLP338 T10721150 11050 21072 56006

TAF KAZO
Valid from the 22 at 00:00 until the 23 at 00:00 UTC


212344Z 2200/2224 18005KT P6SM SKC
FM220900 19010G21KT P6SM SCT040
FM221400 21011G22KT 5SM -SHSN BKN035
FM221800 25013G20KT P6SM OVC050
KZAU FIR / North America



MET'MAP, your aeronautical weather chart ! - Copyright ORBIFLY December 2007 - Disclaimer

ORBIFLY MET'MAP TEAM :

Programming & Development : Alexandra Zaïnal
Concept & original design : Baudouin d'Aumeries
Assistance for programming : Marc-Olivier Méhu
Technical & hardware support : Manuel Goepfert

Contact : metmap@orbifly.com




SOURCES & CREDITS :

   NOAA       Earth
Advisory